Meath Environmental Platform

Observations

Time Sensor AQI SAQ Temp °C Hum % Pres Pa CO μg/m³ H₂S μg/m³ NO μg/m³ NO₂ μg/m³ O₃ μg/m³ SO₂ μg/m³ CO₂e PPM VOC PPM PM1 μg/m³ PM2.5 μg/m³ PM4 μg/m³ PM10 μg/m³ TPS µm
Wednesday 12 August 2026
21:43 Trim Market St 3 26.4 47 60,759 0 0.93 0.8 17.94 72.47 0 1.43 4.12 6
21:42 Trim Patrick St 3 26 50 69,177 0 17.59 0.8 35.03 51.56 11.1 4.57 10.27 11.29
21:42 Trim Market St 3 26.4 47 60,813 0 3.19 0.79 17.94 77.88 0 2.14 4.64 5.24
21:40 Trim Patrick St 3 26.1 49 69,163 0 18.89 0.8 34.1 56.28 11.51 4.57 9.52 10.47
21:40 Trim Market St 3 26.5 47 61,322 0 2.09 0.78 21.77 71.5 0 0.71 3.61 3.72
21:39 Trim Patrick St 3 26.1 49 69,171 0 17.77 0.8 26.16 56.57 11.79 3.71 9.52 10.48
21:38 Trim Patrick St 3 26.2 49 69,183 0 17.58 0.8 27.81 57.15 11.73 3.71 8.77 9.65
21:37 Trim Patrick St 3 26.2 49 69,195 0 16.97 0.79 26.57 59.41 11.48 5.43 11.86 13.04
21:36 Trim Patrick St 3 26.2 48 69,183 0 16.97 0.81 27.81 57.23 11.4 3.71 9.6 10.56
21:35 Trim Patrick St 3 26.2 48 69,169 0 17.1 0.8 23.6 61.3 11.85 4.57 9.59 10.55
21:34 Trim Patrick St 3 26.3 48 69,181 0 18.38 0.79 25.9 63.35 11.77 4.57 10.34 11.37
21:31 Trim Patrick St 3 26.4 48 69,171 0 18.32 0.77 35.63 51.82 11.44 4.57 10.34 11.37
21:30 Trim Patrick St 3 26.4 48 69,155 0 18.88 0.76 25.11 58.74 11.71 3.71 8.84 9.73
21:27 Trim Patrick St 3 26.5 48 69,175 0 19.68 0.76 29 62.04 11.93 4.57 9.61 10.57
21:26 Trim Patrick St 3 26.5 48 69,189 0 19.33 0.77 38.97 51.63 11.99 5.43 11.13 12.24
21:25 Trim Patrick St 3 26.6 47 69,175 0 19.14 0.79 28.04 58.52 11.77 4.57 11.19 12.31
21:24 Trim Patrick St 3 26.6 48 69,189 0 19.59 0.78 25.16 65.94 12.46 3.71 8.86 9.75
21:23 Trim Patrick St 3 26.7 48 69,181 0 18.25 0.78 27.7 64.44 12 4.57 10.41 11.45
21:22 Trim Patrick St 3 26.7 46 69,195 0 18.39 0.79 23.34 65.97 12.18 4.57 9.74 10.71
21:21 Trim Patrick St 3 26.7 47 69,189 0 20.2 0.78 34.69 56.05 12.55 3.71 8.89 9.78